Sturgis, MI

3:41 PM EST on December 06, 2019 (GMT -0500)
Kirsch Municipal

Weather History for KIRS - October, 2019

Change the Weather History Date:

Tuesday, October 15, 2019

  Actual Average (WUND) Record (WUND)
Temperature  
Mean Temperature 52 °F -  
Max Temperature 68 °F - - (-1)
Min Temperature 37 °F - - (-1)
Degree Days  
Heating Degree Days 12    
Growing Degree Days 2 (Base 50)    
Moisture  
Dew Point 40 °F    
Average Humidity 61    
Maximum Humidity 87    
Minimum Humidity 32    
Precipitation  
Precipitation 0.07 in - - ()
Sea Level Pressure  
Sea Level Pressure 29.90 in    
Wind  
Wind Speed 7 mph ()    
Max Wind Speed 21 mph    
Max Gust Speed 28 mph    
Visibility 9.8 miles    
Events Rain    
Averages and records for this station are not official NWS values.
T = Trace of Precipitation, MM = Missing Value Source: Averaged Metar Reports

Daily Weather History Graph

Daily Weather History Graph

Search for Another Location

Airport or City:

Astronomy

Oct. 15, 2019 Rise Set
Actual Time 7:53 AM EDT 7:00 PM EDT
Civil Twilight 7:25 AM EDT 7:28 PM EDT
Nautical Twilight 6:53 AM EDT 8:00 PM EDT
Astronomical Twilight 6:21 AM EDT 8:33 PM EDT
Moon 8:19 PM EDT (10/15) 9:24 AM EDT (10/15)
Length of Visible Light 12h 02m
Length of Day
11h 06m
Full, 97% of the Moon is Illuminated
Oct 15
Full
Oct 21
Last Quarter
Oct 27
New
Nov 4
First Quarter
Nov 12
Full

Hourly Weather History & Observations

Time (EDT) Temp. Windchill Dew Point Humidity Pressure Visibility Wind Dir Wind Speed Gust Speed Precip Events Conditions
12:19 AM 39.4 °F 37.2 °F 33.1 °F 78% 30.09 in 10.0 mi East 3.5 mph - N/A   Clear
12:37 AM 38.5 °F 36.1 °F 34.2 °F 84% 30.08 in 10.0 mi ESE 3.5 mph - N/A   Clear
12:55 AM 37.9 °F - 32.2 °F 80% 30.09 in 10.0 mi Calm Calm - N/A   Clear
1:15 AM 37.9 °F - 32.5 °F 81% 30.08 in 10.0 mi Calm Calm - N/A   Clear
1:16 AM 37.8 °F - 32.5 °F 81% 30.08 in 10.0 mi Calm Calm - N/A   Clear
1:35 AM 38.7 °F - 33.4 °F 81% 30.08 in 10.0 mi Calm Calm - N/A   Clear
1:40 AM 37.2 °F - 32.2 °F 82% 30.09 in 10.0 mi Calm Calm - N/A   Clear
1:58 AM 37.8 °F - 33.3 °F 84% 30.08 in 10.0 mi Calm Calm - N/A   Clear
2:16 AM 37.8 °F - 33.1 °F 83% 30.07 in 10.0 mi Calm Calm - N/A   Clear
2:35 AM 39.7 °F - 32.5 °F 75% 30.08 in 10.0 mi Calm Calm - N/A   Clear
2:36 AM 39.7 °F - 32.7 °F 76% 30.08 in 10.0 mi Calm Calm - N/A   Clear
2:55 AM 40.1 °F - 32.5 °F 74% 30.09 in 10.0 mi Calm Calm - N/A   Clear
3:37 AM 39.2 °F - 32.9 °F 78% 30.09 in 10.0 mi Calm Calm - N/A   Clear
3:55 AM 39.4 °F - 32.5 °F 76% 30.07 in 10.0 mi Calm Calm - N/A   Clear
4:15 AM 38.3 °F 35.9 °F 32.4 °F 79% 30.07 in 10.0 mi SE 3.5 mph - N/A   Clear
4:35 AM 39.2 °F 37.0 °F 32.5 °F 77% 30.07 in 10.0 mi SSE 3.5 mph - N/A   Clear
4:40 AM 39.2 °F 37.0 °F 32.7 °F 78% 30.07 in 10.0 mi SSE 3.5 mph - N/A   Clear
4:58 AM 39.4 °F 35.2 °F 32.9 °F 78% 30.07 in 10.0 mi SSE 5.8 mph - N/A   Clear
5:16 AM 40.1 °F 36.1 °F 32.9 °F 75% 30.07 in 10.0 mi SSE 5.8 mph - N/A   Clear
5:35 AM 40.1 °F 36.1 °F 32.9 °F 75% 30.07 in 10.0 mi SSE 5.8 mph - N/A   Clear
5:55 AM 39.6 °F 36.3 °F 32.9 °F 77% 30.07 in 10.0 mi SSE 4.6 mph - N/A   Clear
6:19 AM 40.3 °F 36.3 °F 33.3 °F 76% 30.07 in 10.0 mi SE 5.8 mph - N/A   Clear
6:37 AM 40.5 °F 36.5 °F 32.9 °F 74% 30.06 in 10.0 mi SSE 5.8 mph - N/A   Clear
6:55 AM 40.6 °F 36.7 °F 33.1 °F 74% 30.07 in 10.0 mi SSE 5.8 mph - N/A   Clear
6:56 AM 40.6 °F 36.7 °F 33.1 °F 74% 30.07 in 10.0 mi SSE 5.8 mph - N/A   Clear
7:15 AM 40.8 °F 35.0 °F 33.3 °F 74% 30.06 in 10.0 mi SE 9.2 mph - N/A   Clear
7:35 AM 41.0 °F 35.2 °F 33.3 °F 74% 30.04 in 10.0 mi SE 9.2 mph - N/A   Clear
7:58 AM 41.9 °F 36.3 °F 33.1 °F 71% 30.03 in 10.0 mi SSE 9.2 mph - N/A   Clear
8:16 AM 42.3 °F 37.9 °F 33.1 °F 70% 30.02 in 10.0 mi SSE 6.9 mph - N/A   Clear
8:35 AM 42.8 °F 37.5 °F 33.3 °F 69% 30.01 in 10.0 mi SE 9.2 mph - N/A   Clear
8:36 AM 42.8 °F 38.0 °F 33.3 °F 69% 30.01 in 10.0 mi SE 8.1 mph - N/A   Clear
8:55 AM 44.6 °F 40.2 °F 33.8 °F 66% 30.01 in 10.0 mi SSE 8.1 mph - N/A   Clear
9:19 AM 46.4 °F 42.4 °F 35.1 °F 65% 30.02 in 10.0 mi South 8.1 mph - N/A   Clear
9:37 AM 48.0 °F - 35.6 °F 62% 30.01 in 10.0 mi South 10.4 mph 16.1 mph N/A   Clear
9:55 AM 50.0 °F - 36.5 °F 60% 30.00 in 10.0 mi South 10.4 mph - N/A   Clear
9:56 AM 50.0 °F - 36.5 °F 60% 30.00 in 10.0 mi South 11.5 mph - N/A   Clear
10:15 AM 51.8 °F - 36.7 °F 56% 29.99 in 10.0 mi South 9.2 mph - N/A   Clear
10:35 AM 54.5 °F - 37.4 °F 52% 29.97 in 10.0 mi SSE 10.4 mph 17.3 mph N/A   Clear
10:58 AM 56.7 °F - 36.5 °F 47% 29.96 in 10.0 mi South 11.5 mph 19.6 mph N/A   Clear
11:16 AM 58.3 °F - 34.9 °F 41% 29.95 in 10.0 mi South 18.4 mph 21.9 mph N/A   Clear
11:35 AM 59.2 °F - 34.0 °F 39% 29.94 in 10.0 mi South 18.4 mph 25.3 mph N/A   Clear
11:36 AM 59.4 °F - 34.0 °F 39% 29.94 in 10.0 mi South 17.3 mph - N/A   Clear
11:55 AM 60.8 °F - 33.8 °F 36% 29.93 in 10.0 mi South 15.0 mph 20.7 mph N/A   Clear
12:19 PM 62.1 °F - 32.7 °F 33% 29.92 in 10.0 mi SSE 15.0 mph - N/A   Clear
12:37 PM 63.3 °F - 32.5 °F 32% 29.91 in 10.0 mi SSE 13.8 mph 20.7 mph N/A   Clear
12:55 PM 63.7 °F - 33.3 °F 32% 29.89 in 10.0 mi South 13.8 mph 21.9 mph N/A   Scattered Clouds
1:15 PM 64.4 °F - 35.4 °F 34% 29.88 in 10.0 mi South 15.0 mph 21.9 mph N/A   Scattered Clouds
1:35 PM 65.3 °F - 36.7 °F 35% 29.86 in 10.0 mi South 12.7 mph - N/A   Mostly Cloudy
1:40 PM 65.3 °F - 37.2 °F 35% 29.86 in 10.0 mi South 15.0 mph 18.4 mph N/A   Mostly Cloudy
1:58 PM 65.8 °F - 37.2 °F 35% 29.84 in 10.0 mi South 17.3 mph 20.7 mph N/A   Overcast
2:16 PM 66.9 °F - 38.7 °F 35% 29.82 in 10.0 mi SSE 19.6 mph 23.0 mph N/A   Overcast
2:35 PM 68.9 °F - 38.8 °F 33% 29.80 in 10.0 mi South 19.6 mph 25.3 mph N/A   Overcast
2:55 PM 67.6 °F - 38.7 °F 35% 29.81 in 10.0 mi SSW 16.1 mph 20.7 mph N/A   Overcast
2:56 PM 67.5 °F - 38.5 °F 35% 29.81 in 10.0 mi SSW 15.0 mph 20.7 mph N/A   Overcast
3:19 PM 67.8 °F - 38.7 °F 34% 29.79 in 10.0 mi SSW 16.1 mph 21.9 mph N/A   Overcast
3:37 PM 68.2 °F - 39.6 °F 35% 29.78 in 10.0 mi SSW 13.8 mph 24.2 mph N/A   Overcast
3:55 PM 68.4 °F - 40.1 °F 36% 29.77 in 10.0 mi SSW 13.8 mph 20.7 mph N/A   Overcast
3:56 PM 68.4 °F - 40.3 °F 36% 29.77 in 10.0 mi SSW 15.0 mph 20.7 mph N/A   Overcast
4:15 PM 68.9 °F - 41.7 °F 37% 29.76 in 10.0 mi SSW 12.7 mph 19.6 mph N/A   Overcast
4:16 PM 68.9 °F - 41.5 °F 37% 29.76 in 10.0 mi SSW 11.5 mph 19.6 mph N/A   Overcast
4:35 PM 68.5 °F - 42.3 °F 38% 29.76 in 10.0 mi SSW 17.3 mph - N/A   Overcast
4:39 PM 68.2 °F - 42.6 °F 40% 29.75 in 10.0 mi SW 16.1 mph 19.6 mph N/A   Overcast
4:58 PM 67.5 °F - 43.9 °F 43% 29.75 in 10.0 mi SSW 13.8 mph 23.0 mph N/A   Overcast
5:16 PM 67.3 °F - 45.1 °F 45% 29.74 in 10.0 mi SSW 10.4 mph - N/A   Overcast
5:35 PM 67.5 °F - 45.5 °F 45% 29.73 in 10.0 mi SSW 11.5 mph 16.1 mph N/A   Overcast
5:55 PM 67.1 °F - 46.6 °F 48% 29.73 in 10.0 mi SSW 13.8 mph 18.4 mph N/A   Overcast
5:56 PM 67.1 °F - 46.6 °F 48% 29.73 in 10.0 mi SSW 12.7 mph 18.4 mph N/A   Overcast
6:19 PM 66.9 °F - 46.9 °F 49% 29.73 in 10.0 mi SSW 10.4 mph - N/A   Overcast
6:37 PM 66.6 °F - 47.8 °F 51% 29.73 in 10.0 mi SSW 11.5 mph - N/A   Overcast
6:55 PM 66.2 °F - 48.7 °F 53% 29.73 in 10.0 mi SSW 10.4 mph 16.1 mph N/A   Overcast
7:15 PM 66.2 °F - 49.3 °F 54% 29.72 in 10.0 mi SSW 11.5 mph - N/A   Overcast
7:35 PM 66.2 °F - 50.7 °F 57% 29.72 in 10.0 mi SSW 8.1 mph - N/A   Overcast
7:58 PM 65.7 °F - 51.1 °F 59% 29.72 in 10.0 mi SW 9.2 mph - N/A   Overcast
8:16 PM 65.8 °F - 52.7 °F 62% 29.72 in 10.0 mi SW 17.3 mph 24.2 mph N/A   Overcast
8:35 PM 64.8 °F - 54.5 °F 69% 29.72 in 10.0 mi SW 19.6 mph 23.0 mph N/A   Overcast
8:36 PM 64.8 °F - 54.7 °F 70% 29.72 in 10.0 mi SW 20.7 mph - N/A   Overcast
8:55 PM 63.7 °F - 55.4 °F 74% 29.71 in 10.0 mi SW 13.8 mph - N/A   Overcast
8:56 PM 63.7 °F - 55.4 °F 74% 29.71 in 10.0 mi SW 11.5 mph - N/A   Overcast
9:19 PM 63.5 °F - 55.4 °F 75% 29.70 in 10.0 mi SW 12.7 mph - N/A   Overcast
9:37 PM 63.1 °F - 55.4 °F 76% 29.69 in 10.0 mi SW 13.8 mph 19.6 mph N/A   Overcast
9:55 PM 63.1 °F - 55.0 °F 75% 29.69 in 10.0 mi SW 12.7 mph 18.4 mph N/A   Overcast
10:15 PM 62.4 °F - 55.8 °F 79% 29.70 in 7.0 mi SW 15.0 mph 19.6 mph N/A Rain Rain
10:35 PM 60.8 °F - 56.8 °F 87% 29.69 in 10.0 mi SW 9.2 mph - N/A Rain Rain
10:40 PM 60.8 °F - 56.8 °F 87% 29.69 in 10.0 mi SW 10.4 mph - N/A Rain Light Rain
10:58 PM 60.6 °F - 56.8 °F 87% 29.68 in 10.0 mi WSW 6.9 mph - N/A Rain Light Rain
11:16 PM 60.4 °F - 56.7 °F 87% 29.69 in 7.0 mi WSW 10.4 mph - 0.01 in Rain Light Rain
11:35 PM 57.9 °F - 53.2 °F 84% 29.70 in 5.0 mi West 17.3 mph 27.6 mph 0.06 in Rain Heavy Rain
11:55 PM 54.7 °F - 50.4 °F 85% 29.70 in 7.0 mi WNW 13.8 mph 20.7 mph 0.07 in Rain Light Rain